Location: Newark
(7.0858°N, 171.3717°E)
Time: 07:56:33
(UTC+00:00)

Courier 1B - Pass Details

Date: 01 December 2020
Orbit: 962 x 1209 km, 28.3° (Epoch: 20 January)

Event Time Altitude Azimuth Distance (km) Brightness Sun altitude
Rises 04:18:39 0° 212° (SSW) 3,722 11.5 25.6°
Reaches altitude 10° 04:22:12 10° 195° (SSW) 2,737 10.6 24.8°
Maximum altitude 04:26:44 19° 151° (SSE) 2,104 9.4 23.8°
Drops below altitude 10° 04:31:12 10° 107° (ESE) 2,686 9.5 22.8°
Sets 04:34:37 0° 90° (E) 3,630 10.0 22.1°
